www.pogodaiklimat.ru

Погода и климат >> Архив погоды >> Ливия >> Бенгази


ПОГОДА в Бенгази

  • Прогноз погоды в Бенгази
  • Монитор погоды в Бенгази

АРХИВ ПОГОДЫ в Бенгази

Время (UTC), дата Ветер
(напр.,м/с)
 
Видим.   Явления Облачность Т
(С)
Тd
(С)
f
(%)
Тe
(С)
Тes
(С)
Комфортность P
(гПа)
Po
(гПа)
Тmin
(С)
Tmax
(С)
R
(мм)
R24
(мм)
S
(см)
15 14.07 СЗ 7 10 км 8/8 600 м
[Sc]
+29.8 +21.6 61 +38 +38 очень
душно
1010.8 995.1
18 14.07 СЗ 5 10 км 8/8 600 м
[Sc]
+27.8 +23.0 75 +37 +37 очень
душно
1010.6 995.3 +31.0
21 14.07 СЗ 4 10 км 4/4 600 м
[Sc]
+26.5 +22.7 80 +35 +35 очень
душно
1011.2 996.0
00 15.07 штиль 0 8000 м 3/3 600 м
[Sc]
+23.6 +20.7 84 +29 +29 душно 1010.3 994.9
03 15.07 штиль 0 8000 м 3/3 600 м
[Sc]
+23.2 +21.2 89 +31 +31 очень
душно
1009.3 993.9
09 15.07 штиль 0 10 км ясно +32.5 +14.4 33 +34 +59 опасность
солнечного
удара
1010.9 995.8
12 15.07 штиль 0 10 км ясно +37.0 +14.3 26 +38 +64 опасность
солнечного
удара
1008.7 993.8
15 15.07 ЮЗ 6 10 км ясно +39.1 +14.0 23 +40 +42 очень
душно
1006.2 991.3
18 15.07 Ю 7 10 км ясно +36.0 +9.6 20 +35 +35 очень
жарко
1004.6 989.7 +39.1
21 15.07 Ю 3 8000 м ясно +34.2 +10.8 24 +34 +34 очень
жарко
1005.3 990.4
00 16.07 Ю 5 8000 м ясно +31.5 +11.4 29 +32 +32 жарко 1004.2 989.2
03 16.07 З 3 8000 м 6/6 450 м
[St]
+27.3 +24.2 83 +38 +38 очень
душно
1005.5 990.3
06 16.07 СЗ 8 8000 м мгла 8/6 600 м
[Sc Ac trans]
+27.8 +24.1 80 +39 +39 очень
душно
1007.0 991.8 +27.1
09 16.07 СЗ 9 10 км 6/6 600 м
[Sc]
+30.8 +23.2 64 +41 +42 опасность
перегрева
1007.5 992.5
12 16.07 СЗ 8 10 км 5/5 600 м
[Sc]
+31.6 +22.6 59 +41 +43 опасность
перегрева
1007.3 992.3
15 16.07 СЗ 8 10 км 5/5 600 м
[Sc]
+29.0 +21.6 64 +37 +37 очень
душно
1007.5 992.4
18 16.07 СЗ 10 10 км 6/6 600 м
[Sc]
+26.8 +21.3 72 +34 +34 очень
душно
1008.4 993.2 +31.6
21 16.07 СЗ 6 10 км 6/6 600 м
[Sc]
+26.1 +20.2 70 +32 +32 очень
душно
1009.8 994.5
00 17.07 З 4 10 км 6/6 600 м
[Sc]
+25.4 +19.1 68 +30 +30 душно 1008.8 993.5
03 17.07 З 5 10 км 6/6 600 м
[Sc]
+25.3 +19.8 72 +31 +31 очень
душно
1008.2 992.9
06 17.07 СЗ 8 10 км 6/6 600 м
[Sc]
+26.1 +19.7 68 +32 +32 очень
душно
1008.9 993.6 +24.8
09 17.07 СЗ 10 10 км в посл. час дождь 6/6 600 м
[Sc]
+27.2 +18.0 57 +32 +32 очень
душно
1010.4 995.0
12 17.07 СЗ 12 10 км 9/9 600 м
[Sc]
+28.2 +23 +23 комфорт 1010.3 995.0 0.0
15 17.07 СЗ 11 10 км 9/9 600 м
[Cu Sc]
+26.7 +18.8 62 +32 +32 очень
душно
1010.2 994.8
18 17.07 СЗ 8 10 км 8/8 600 м
[Sc]
+25.0 +19.0 69 +30 +30 душно 1011.2 995.7 +28.5 0.0
21 17.07 СЗ 3 10 км 5/5 600 м
[Sc]
+23.8 +18.8 74 +29 +29 душно 1012.9 997.3
00 18.07 штиль 0 10 км 5/5 600 м
[Sc]
+23.0 +19.4 80 +29 +29 очень
душно
1012.1 996.5 0.0
03 18.07 штиль 0 10 км 5/5 600 м
[Sc]
+21.6 +19.1 86 +27 +27 душно 1011.8 996.1
06 18.07 С 4 10 км 4/4 600 м
[Sc]
+24.5 +20.1 76 +30 +32 очень
душно
1012.7 997.2 +21.3 0.0
12 18.07 СЗ 5 10 км 4/4 600 м
[Cu hum]
+29.8 +17.2 47 +34 +40 очень
душно
1012.6 997.4
15 18.07 СЗ 5 10 км 4/4 600 м
[Cu hum]
+29.0 +18.3 52 +34 +35 очень
душно
1012.8 997.4
18 18.07 С 5 10 км 4/4 600 м
[Sc]
+25.5 +20.1 72 +31 +31 очень
душно
1013.8 998.3 +30.0 210
09 19.07 СЗ 3 10 км 6/6 750 м
[Sc]
+30.2 +16.2 43 +33 +40 душно 1015.4 1000.2
12 19.07 СЗ 9 10 км 4/4 750 м
[Sc]
+29.8 +17.3 47 +34 +35 очень
душно
1014.9 999.7
15 19.07 СЗ 10 10 км 6/6 750 м
[Sc]
+28.9 +18.2 52 +34 +34 очень
душно
1014.7 999.4
18 19.07 СЗ 10 10 км 4/4 600 м
[St As op Cs]
+30.2 +17.9 48 +35 +35 очень
душно
1015.6 1000.2
21 19.07 С 5 10 км 4/4 750 м
[Sc]
+24.3 +18.7 71 +29 +29 душно 1016.8 1001.2
00 20.07 СВ 4 10 км 5/3 600 м
[Sc Ac trans]
+23.4 +18.0 72 +29 +29 душно 1016.5 1000.9
03 20.07 СВ 3 10 км 3/0
[Ac trans]
+22.1 +18.8 82 +27 +27 душно 1016.3 1000.6
06 20.07 С 7 8000 м мгла 3/3 600 м
[Cu med, cong]
+25.5 +19.2 68 +31 +32 очень
душно
1017.0 1001.6 +21.7
09 20.07 С 4 10 км 4/4 600 м
[Sc]
+28.9 +16.5 47 +32 +40 душно 1017.6 1002.3
12 20.07 С 10 10 км 4/4 600 м
[Sc]
+30.8 +16.0 41 +34 +34 очень
душно
1017.4 1002.2
15 20.07 С 10 10 км 4/4 600 м
[Sc]
+29.3 +16.6 46 +33 +33 душно 1017.1 1001.8
18 20.07 С 10 10 км 4/4 600 м
[Sc]
+25.4 +17.3 61 +29 +29 душно 1017.7 1002.2 +30.8
21 20.07 10 км н/о +24.0 +18.0 69 +28 +28 душно 1018.5 1002.9
00 21.07 СВ 3 10 км 1/1 750 м
[Sc]
+22.3 +17.6 75 +27 +27 душно 1017.9 1002.2
03 21.07 штиль 0 8000 м мгла 1/1 750 м
[Sc]
+20.8 +17.6 82 +24 +24 комфорт 1017.4 1001.7
06 21.07 СВ 7 10 км 4/4 750 м
[Sc]
+25.7 +19.9 70 +31 +32 очень
душно
1017.9 1002.5 +20.3
09 21.07 С 5 10 км 4/4 750 м
[Sc]
+30.1 +18.2 49 +35 +40 очень
душно
1018.0 1002.8
12 21.07 С 8 10 км 5/5 750 м
[Sc]
+30.5 +18.2 48 +35 +37 очень
душно
1017.3 1002.1

 

Местоположение метеостанции Бенгази (Ливия): широта 32.10 долгота 20.27 высота над уровнем моря 132 м.

В архиве по умолчанию представлена погода в Бенгази за последнюю неделю. Архивные данные за месяц целиком и за предыдущие месяцы, начиная с января 2011 года, Вы можете получить, выбрав интересующий диапазон дат из раскрывающегося списка и нажав кнопку "Ввод!".


*Определитесь, кто Вы:
робот инопланетянин человек

Внимание! Время в таблицах - всемирное. Для получения местного времени необходимо прибавить поправку, которая равна 1 ч.

Смотрите также архив погоды в соседних городах и на ближайших метеорологических станциях:

Погода в Эль-Мардже (Ливия) (74 км)
Погода во Вьебуме (Южная Африка) (254 км)
Погода в Мараде (Ливия) (306 км)
Погода в Сирте (Ливия) (363 км)
Погода в Джалу (Ливия) (363 км)
Погода в Плато Саллум (Египет) (463 км)
Погода в Мисурате (Ливия) (492 км)
Погода на Суде (Греция) (518 км)
Погода на Китире (Греция) (529 км)
Погода в Хуне (Ливия) (531 км)

Пояснения к столбцам:

Ветер - указаны скорость ветра в м/с - средняя за 10 мин, порывы в срок и между сроками (в фигурных скобках) и направление, откуда дует ветер: С - северный, СВ - северо-восточный, В - восточный, ЮВ - юго-восточный, Ю - южный, ЮЗ - юго-западный, З - западный, СЗ - северо-западный.
Видимость - горизонтальная дальность видимости в метрах или километрах. При видимости от 1 до 10 км при отсутствии осадков обычно наблюдается дымка, при ухудшении видимости до 1 км и менее - туман. В сухую погоду видимость может ухудшаться дымом, пылью или мглою.
Явления - указаны атмосферные явления, наблюдавшиеся в срок или в последний час перед сроком; фигурными скобками обозначены явления, наблюдавшиеся между сроками (за 1-3 часа до срока); квадратными скобками обозначены град или гололедные отложения с указанием их диаметра в мм.
Облачность - указаны через наклонную черту общая и нижняя облачность в баллах и высота нижней границы облаков в метрах; квадратными скобками обозначены формы облаков: Ci - перистые, Cs - перисто-слоистые, Cc - перисто-кучевые, Ac - высококучевые, As - высокослоистые, Sc - слоисто-кучевые, Ns - слоисто-дождевые, Cu - кучевые, Cb - кучево-дождевые. Подробнее классификацию облаков см. в Атласе облаков (PDF).
T - Температура воздуха - температура, измеренная на высоте 2 м над землей.
Td - Температура точки росы - температура, при понижении до которой содержащийся в воздухе водяной пар достигнет насыщения.
f - Относительная влажность воздуха - влажноcть воздуха, измеренная на высоте 2 м над землей.
Te - Эффективная температура - температура, которую ощущает одетый по сезону человек в тени. Характеристика душности погоды. При расчете учитывается влияние влажности воздуха и скорости ветра на теплоощущения человека.
Tes - Эффективная температура на солнце - температура, которую ощущает человек, с поправкой на солнечный нагрев. Характеристика знойности погоды. Зависит от высоты солнца над горизонтом, облачности и скорости ветра. Ночью, в пасмурную погоду, а также при ветре 12 м/с и более поправка равна нулю.
P - Атмосферное давление - приведенное к уровню моря атмосферное давление.
Po - Атмосферное давление - измеренное на уровне метеостанции атмосферное давление.
Tmin - Минимальная температура - минимум температуры воздуха на высоте 2 м над землей.
Tmax - Максимальная температура - максимум температуры воздуха на высоте 2 м над землей.
R - Количество осадков - Количество выпавших осадков за период времени, мм. При наведении курсора мыши на число - период времени, за который выпало указанное количество осадков.
R24 - Количество осадков - Количество выпавших осадков за 24 часа, мм.
S - Снежный покров - Высота снежного покрова, см. При наведении курсора мыши на число - состояние снежного покрова и степень покрытия местности в баллах.